Waarnemingen

Advertentie
Mijn weer
Paharova, Zweden (2184): temperatuur & dauwpunt: 16.10.2017 01:00:00 - 22.10.2017 01:00:00 (CEST)Paharova, Zweden (2184): windsnelheid & windstoten: 16.10.2017 01:00:00 - 22.10.2017 01:00:00 (CEST)Paharova, Zweden (2184): windrichting: 16.10.2017 01:00:00 - 22.10.2017 01:00:00 (CEST)Paharova, Zweden (2184): luchtdruk: 16.10.2017 01:00:00 - 22.10.2017 01:00:00 (CEST)Paharova, Zweden (2184): zicht: 16.10.2017 01:00:00 - 22.10.2017 01:00:00 (CEST)Paharova, Zweden (2184): neerslag: 16.10.2017 01:00:00 - 22.10.2017 01:00:00 (CEST)
Datum & Tijd tt [°C] td [°C] ff [km/u] ff [kn] fx [km/u] fx [kn] dd ppp [hPa] vv [km] rr [mm]
22.10.2017 01:00:00 - - - - - - - - - -
22.10.2017 00:00:00 -5,2 -5,3 2 1 6 4 NNW 1021,7 50 0,0
21.10.2017 23:00:00 -5,5 -6,2 0 0 8 4 N 1021,7 50 0,0
21.10.2017 22:00:00 -4,3 -4,3 3 1 6 4 NW 1021,6 50 0,0
21.10.2017 21:00:00 -4,0 -4,1 2 1 5 3 NW 1021,7 50 0,0
21.10.2017 20:00:00 -3,2 -3,7 0 0 4 2 N 1021,7 50 0,0
21.10.2017 19:00:00 -3,0 -3,8 0 0 3 2 N 1021,7 50 0,0
21.10.2017 18:00:00 -2,5 -4,1 0 0 5 3 N 1021,6 50 0,0
21.10.2017 17:00:00 -2,7 -3,8 3 2 8 5 W 1021,8 50 0,0
21.10.2017 16:00:00 -1,9 -3,3 3 2 8 4 W 1021,9 50 0,0
21.10.2017 15:00:00 -1,9 -2,9 3 1 9 5 W 1022,1 50 0,0
21.10.2017 14:00:00 -1,8 -2,9 2 1 9 5 W 1022,0 50 0,0
21.10.2017 13:00:00 -1,7 -2,5 3 2 8 4 W 1022,5 50 0,0
21.10.2017 12:00:00 -3,0 -3,1 4 2 9 5 W 1022,8 50 0,0
21.10.2017 11:00:00 -4,5 -4,5 2 1 9 5 W 1023,1 50 0,0
21.10.2017 10:00:00 -6,2 -6,2 3 2 9 5 W 1023,2 50 0,0
21.10.2017 09:00:00 -6,8 -6,8 4 2 8 4 WNW 1023,3 50 0,0
21.10.2017 08:00:00 -7,3 -7,3 2 1 7 4 W 1023,4 50 0,0
21.10.2017 07:00:00 -6,9 -6,9 3 2 8 4 W 1023,4 50 0,0
21.10.2017 06:00:00 -6,8 -6,8 4 2 9 5 WZW 1023,8 50 0,0
21.10.2017 05:00:00 -6,2 -6,2 3 2 7 4 WZW 1023,9 50 0,0
21.10.2017 04:00:00 -6,2 -6,2 3 2 8 4 WZW 1024,2 50 0,0
21.10.2017 03:00:00 -5,3 -5,3 4 2 9 5 Z 1024,4 50 0,0
21.10.2017 02:00:00 -5,5 -5,5 2 1 6 3 Z 1024,8 50 0,0
21.10.2017 01:00:00 -5,5 -5,5 4 2 8 4 ZW 1025,1 50 0,0
21.10.2017 00:00:00 -5,0 -5,0 2 1 7 4 WZW 1025,7 50 0,0
20.10.2017 23:00:00 -4,6 -4,6 4 2 9 5 ZW 1025,6 50 0,0
20.10.2017 22:00:00 -4,6 -4,6 5 3 9 5 ZW 1025,8 50 0,0
20.10.2017 21:00:00 -3,3 -3,3 4 2 9 5 ZZW 1026,0 50 0,0
20.10.2017 20:00:00 -3,0 -3,0 3 2 7 4 Z 1026,1 50 0,0
20.10.2017 19:00:00 -2,8 -2,8 3 2 6 4 ZZW 1026,0 50 0,0
20.10.2017 18:00:00 -2,1 -2,1 3 1 5 3 ZW 1026,0 50 0,0
20.10.2017 17:00:00 -1,7 -1,7 3 2 4 2 WZW 1026,2 50 0,0
20.10.2017 16:00:00 -0,6 -1,3 0 0 7 4 N 1026,2 50 0,0
20.10.2017 15:00:00 0,3 -1,6 3 2 9 5 WNW 1026,2 50 0,0
20.10.2017 14:00:00 0,3 -1,5 4 2 9 5 N 1026,1 50 0,0
20.10.2017 13:00:00 -0,3 -0,6 0 0 10 6 N 1026,0 50 0,0
20.10.2017 12:00:00 0,0 -0,3 4 2 12 7 N 1025,8 48 0,0
20.10.2017 11:00:00 -0,3 -0,9 7 4 18 10 N 1025,6 50 0,0
20.10.2017 10:00:00 -0,4 -0,4 3 2 10 6 N 1025,1 50 0,0
20.10.2017 09:00:00 -0,6 -0,6 7 4 13 7 N 1024,4 15 0,0
20.10.2017 08:00:00 -0,7 -0,7 7 4 12 7 NNO 1023,9 14 0,0
20.10.2017 07:00:00 -0,7 -0,7 6 3 18 10 NNO 1023,4 31 0,1
20.10.2017 06:00:00 -0,5 -0,5 9 5 17 9 N 1022,8 10 0,0
20.10.2017 05:00:00 -0,7 -0,7 6 3 20 11 N 1022,2 3,9 0,0
20.10.2017 04:00:00 -0,4 -0,4 14 8 23 13 N 1021,7 45 0,0
20.10.2017 03:00:00 -0,2 -0,2 12 7 26 14 N 1021,1 7 0,0
20.10.2017 02:00:00 0,0 0,0 9 5 21 12 N 1020,4 24 0,0
20.10.2017 01:00:00 0,3 0,3 5 3 16 8 NNW 1019,8 15 0,0
20.10.2017 00:00:00 0,2 0,2 4 2 14 7 NW 1019,4 1,7 0,0
19.10.2017 23:00:00 0,3 0,3 4 2 9 5 WNW 1019,1 0,9 0,1
19.10.2017 22:00:00 0,3 0,3 0 0 4 2 N 1018,7 0,6 0,0
19.10.2017 21:00:00 0,3 0,3 2 1 8 4 Z 1018,3 7 0,0
19.10.2017 20:00:00 0,2 0,2 4 2 7 4 ZZO 1018,0 0,6 0,0
19.10.2017 19:00:00 0,2 0,2 4 2 10 6 Z 1017,8 0,9 0,0
19.10.2017 18:00:00 0,1 0,1 5 3 11 6 ZZO 1017,6 0,8 0,0
19.10.2017 17:00:00 0,3 0,3 4 2 9 5 ZZO 1017,7 2,4 0,0
19.10.2017 16:00:00 0,7 0,7 4 2 8 4 Z 1017,6 0,6 0,0
19.10.2017 15:00:00 1,0 1,0 2 1 5 3 O 1017,4 0,6 0,0
19.10.2017 14:00:00 1,2 1,2 3 2 9 5 OZO 1017,3 0,7 0,0
19.10.2017 13:00:00 1,2 1,2 0 0 7 4 N 1017,0 1,3 0,0
19.10.2017 12:00:00 1,2 1,2 2 1 5 3 ZZW 1016,7 6 0,0
19.10.2017 11:00:00 0,7 0,7 0 0 7 4 N 1016,3 11 0,1
19.10.2017 10:00:00 0,5 0,5 5 3 8 4 N 1015,8 15 0,1
19.10.2017 09:00:00 0,2 0,2 3 2 8 5 N 1015,1 4,7 0,3
19.10.2017 08:00:00 0,5 0,5 4 2 9 5 N 1014,5 10 0,0
19.10.2017 07:00:00 0,4 0,4 3 2 12 6 NNW 1013,9 13 0,0
19.10.2017 06:00:00 0,6 0,6 5 3 14 8 NNW 1013,2 21 0,1
19.10.2017 05:00:00 0,7 0,7 5 3 17 9 NNW 1012,6 18 0,0
19.10.2017 04:00:00 0,8 0,8 6 4 15 8 NNW 1012,0 22 0,1
19.10.2017 03:00:00 -0,1 -0,1 3 2 13 7 WNW 1011,4 46 0,0
19.10.2017 02:00:00 0,1 0,1 4 2 10 6 NNW 1010,8 50 0,0
19.10.2017 01:00:00 -0,2 -0,2 4 2 11 6 NW 1010,1 34 0,0
19.10.2017 00:00:00 -0,3 -0,3 6 3 12 7 WNW 1009,6 50 0,0
18.10.2017 23:00:00 -0,9 -0,9 4 2 11 6 WNW 1008,9 50 0,1
18.10.2017 22:00:00 -1,8 -1,8 4 2 8 5 NW 1008,3 50 0,0
18.10.2017 21:00:00 -2,1 -2,1 4 2 10 6 NW 1007,6 50 0,0
18.10.2017 20:00:00 -1,8 -1,8 3 2 10 5 NW 1007,1 50 0,0
18.10.2017 19:00:00 -1,2 -1,2 4 2 16 9 NW 1006,6 50 0,0
18.10.2017 18:00:00 -0,1 -0,1 5 3 15 8 NW 1006,1 50 0,0
18.10.2017 17:00:00 0,6 0,6 5 3 16 9 NW 1005,3 50 0,0
18.10.2017 16:00:00 0,9 0,9 6 3 17 9 NNW 1004,6 50 0,0
18.10.2017 15:00:00 1,1 1,1 4 2 16 9 NNW 1003,8 50 0,0
18.10.2017 14:00:00 0,8 0,8 8 5 17 9 N 1003,2 50 0,0
18.10.2017 13:00:00 0,6 0,6 8 5 17 9 N 1002,6 50 0,0
18.10.2017 12:00:00 0,8 0,8 5 3 12 6 NW 1001,9 50 0,0
18.10.2017 11:00:00 0,6 0,6 5 3 13 7 NNW 1001,3 50 0,0
18.10.2017 10:00:00 0,0 0,0 4 2 10 6 NNW 1000,6 1,4 0,0
18.10.2017 09:00:00 0,0 0,0 5 3 10 5 N 1000,1 0,8 0,0
18.10.2017 08:00:00 -0,1 -0,1 5 3 11 6 N 999,6 0,9 0,0
18.10.2017 07:00:00 -0,2 -0,2 4 2 14 8 NNO 999,0 0,5 0,0
18.10.2017 06:00:00 -0,8 -0,8 4 2 8 4 N 998,6 0,6 0,1
18.10.2017 05:00:00 -1,3 -1,3 6 3 10 6 NNO 998,3 2,3 0,0
18.10.2017 04:00:00 -1,9 -1,9 4 2 12 7 NO 998,1 1,9 0,0
18.10.2017 03:00:00 -2,2 -2,2 7 4 13 7 NO 998,0 1,0 0,0
18.10.2017 02:00:00 -1,9 -1,9 8 4 12 6 NNO 997,9 1,0 0,0
18.10.2017 01:00:00 -1,1 -1,1 7 4 9 5 NO 997,8 50 0,0
18.10.2017 00:00:00 -1,2 -1,2 3 2 6 3 W 997,8 50 0,0
17.10.2017 23:00:00 0,6 0,6 0 0 3 2 N 997,8 50 0,0
17.10.2017 22:00:00 0,0 0,0 0 0 6 3 N 997,8 50 0,0
17.10.2017 21:00:00 2,1 1,1 3 2 7 4 Z 998,0 50 0,0
17.10.2017 20:00:00 3,3 1,7 4 2 7 4 ZZW 998,0 50 0,0
17.10.2017 19:00:00 3,1 1,5 0 0 3 2 N 998,3 50 0,0
17.10.2017 18:00:00 3,9 1,3 0 0 6 3 N 998,5 50 0,0
17.10.2017 17:00:00 4,7 1,5 3 2 7 4 ZW 998,9 50 0,0
17.10.2017 16:00:00 5,5 1,6 3 2 10 5 W 999,1 50 0,0
17.10.2017 15:00:00 6,2 2,1 3 2 10 5 W 999,5 50 0,0
17.10.2017 14:00:00 6,5 2,0 5 3 11 6 W 999,6 50 0,0
17.10.2017 13:00:00 7,0 2,1 4 2 14 7 WNW 999,8 50 0,0
17.10.2017 12:00:00 5,8 1,7 6 4 15 8 W 1000,0 50 0,0
17.10.2017 11:00:00 4,4 1,8 5 3 12 6 WZW 1000,5 50 0,0
17.10.2017 10:00:00 2,3 1,6 5 3 19 10 WZW 1000,3 50 0,0
17.10.2017 09:00:00 1,6 1,6 4 2 9 5 W 1000,2 50 0,0
17.10.2017 08:00:00 0,8 0,8 3 2 11 6 W 1000,3 50 0,0
17.10.2017 07:00:00 1,1 1,1 5 3 12 7 W 999,9 50 0,0
17.10.2017 06:00:00 0,9 0,9 5 3 14 8 W 999,4 50 0,0
17.10.2017 05:00:00 1,3 1,3 7 4 17 9 W 999,0 50 0,0
17.10.2017 04:00:00 1,6 1,5 9 5 22 12 WNW 998,5 50 0,0
17.10.2017 03:00:00 1,5 1,5 8 5 20 11 W 998,2 50 0,0
17.10.2017 02:00:00 1,7 1,7 10 5 20 11 W 997,6 50 0,0
17.10.2017 01:00:00 1,6 1,6 7 4 18 10 W 996,7 50 0,0
17.10.2017 00:00:00 2,1 1,7 9 5 26 14 W 995,7 50 0,0
16.10.2017 23:00:00 2,9 1,9 13 7 30 16 WNW 994,9 50 0,0
16.10.2017 22:00:00 3,3 2,0 12 7 30 16 W 994,1 50 0,0
16.10.2017 21:00:00 3,7 2,2 13 7 33 18 W 993,3 50 0,0
16.10.2017 20:00:00 4,4 2,3 13 7 39 21 W 992,6 50 0,0
16.10.2017 19:00:00 5,3 3,0 15 8 37 20 W 992,0 50 0,0
16.10.2017 18:00:00 4,9 3,9 13 7 31 17 W 991,3 50 0,0
16.10.2017 17:00:00 5,0 4,9 14 7 30 16 W 990,9 50 0,0
16.10.2017 16:00:00 4,6 4,6 18 10 46 25 W 990,1 50 0,1
16.10.2017 15:00:00 4,2 4,2 18 10 56 30 W 988,9 - 0,4
16.10.2017 14:00:00 4,3 4,3 23 12 53 29 W 987,1 17 0,7
16.10.2017 13:00:00 5,9 5,9 9 5 31 17 WZW 985,2 - 1,1
16.10.2017 12:00:00 5,8 5,8 18 10 38 21 ZZO 985,1 10 0,3
16.10.2017 11:00:00 5,3 5,3 19 10 56 30 ZZO 987,0 9 1,6
16.10.2017 10:00:00 4,8 4,8 22 12 43 23 ZZO 989,2 7 1,6
16.10.2017 09:00:00 4,6 4,6 23 12 47 26 ZO 991,4 10 1,0
16.10.2017 08:00:00 5,1 5,1 19 10 45 24 ZZO 993,9 8 0,9
16.10.2017 07:00:00 5,1 5,1 16 8 31 17 ZO 995,7 11 1,0
16.10.2017 06:00:00 5,0 5,0 13 7 24 13 ZO 998,2 17 0,8
16.10.2017 05:00:00 5,1 5,1 10 5 24 13 ZZO 1000,2 17 1,0
16.10.2017 04:00:00 4,8 4,8 13 7 26 14 ZO 1001,5 16 0,0
16.10.2017 03:00:00 4,6 4,6 9 5 26 14 ZO 1003,0 6 0,0
16.10.2017 02:00:00 4,4 4,4 12 6 24 13 ZZO 1004,2 23 0,0
16.10.2017 01:00:00 4,2 4,2 10 5 27 15 ZO 1005,3 16 0,0

tt = temperatuur
td = dauwpunt
ff = windsnelheid
fx = windstoten
dd = windrichting
ppp = luchtdruk
vv = zicht
rr = neerslag

Weerstations in de omgeving